Wind_Speed
80 81 82 84 85 86 88 89 90 92 93 94 95 96 97 97 98 99 100 100 101 101 102 103 103 104 105 105 105 106 106 106 106 105 105 105 105 104 104 104 104 104 104 104 105 105 105 105 105 105 105 105 106 106 107 107 108 109 110 111 112 113 114 116 117 118 119 120 121 122 122 123 123 122 122 121 120 119 118 117 116 116 115 115 115 114
79 80 81 82 83 84 86 87 88 89 91 92 93 94 95 96 96 97 98 99 100 100 101 102 102 103 104 104 105 105 105 105 105 105 105 105 104 104 104 104 104 104 104 105 105 105 105 105 106 106 106 107 107 108 108 109 110 111 112 113 115 116 117 118 120 121 121 122 122 122 122 122 121 120 119 118 117 116 115 114 114 114 114 114 114 115
78 78 79 80 81 83 84 85 86 87 88 89 91 91 92 93 94 95 96 97 98 99 100 101 102 102 103 104 104 104 105 105 105 105 105 105 104 104 104 104 105 105 105 105 105 106 106 106 107 107 108 108 109 110 111 112 113 114 115 116 118 119 120 120 121 121 122 122 121 121 120 120 119 117 116 115 114 114 113 113 114 114 114 115 115 115
76 77 78 79 80 81 82 84 85 86 87 88 89 90 90 91 93 94 95 96 97 98 99 100 100 101 102 103 103 104 104 104 104 104 104 104 104 104 104 105 105 105 106 106 107 107 108 108 109 110 110 111 112 113 114 115 116 117 118 118 119 120 120 120 121 120 120 120 119 118 118 117 116 115 114 114 113 113 113 114 114 115 115 116 116 116
75 76 77 77 78 80 81 82 83 84 85 86 87 88 89 90 91 92 93 94 95 96 98 98 99 100 101 102 103 103 104 104 104 104 104 104 104 105 105 105 106 106 107 108 108 109 110 111 111 112 113 114 115 116 116 117 118 118 118 119 119 119 119 119 118 118 117 117 117 116 115 115 114 114 113 113 113 114 114 115 115 115 116 116 116 115
74 74 75 76 77 78 79 80 82 82 83 84 85 86 87 88 89 90 91 93 94 95 96 97 98 100 101 102 102 103 103 103 104 104 104 105 105 105 106 107 107 108 109 110 111 112 113 113 114 115 116 116 117 117 117 117 117 117 117 117 117 116 116 116 116 115 115 115 115 114 114 114 114 114 114 114 114 115 115 115 115 115 115 114 113 112
73 73 74 75 76 77 78 80 80 81 82 83 84 85 86 87 88 90 91 92 93 95 96 97 98 99 101 102 102 103 103 103 104 104 105 105 106 107 108 109 110 111 112 113 113 114 115 116 116 116 117 117 116 116 116 116 115 115 114 114 114 114 114 114 114 114 114 114 114 114 114 114 114 114 114 114 115 115 114 114 113 112 111 110 109 107
73 74 74 75 76 78 78 80 80 81 82 83 84 85 86 87 88 89 91 92 93 95 96 97 98 100 101 102 103 103 104 104 105 105 106 107 108 109 110 111 112 113 114 115 115 116 116 116 116 116 115 115 114 114 113 113 112 112 112 112 112 112 112 113 114 114 115 115 115 115 115 115 114 114 114 113 113 112 112 110 109 107 106 104 103 102
74 76 76 77 78 79 80 81 82 82 83 84 85 86 87 88 89 90 91 92 94 95 96 98 99 101 102 103 104 104 105 106 106 107 108 109 110 111 112 113 114 114 115 115 115 115 115 114 114 113 113 112 112 111 111 110 110 110 110 111 111 112 113 114 115 115 116 116 116 115 115 114 113 112 111 110 109 108 107 105 104 102 100 99 98 97
76 77 78 79 80 80 82 83 84 84 84 85 86 87 88 89 90 91 92 93 95 96 97 99 100 102 104 105 106 106 107 108 108 109 110 111 112 112 113 113 114 114 114 114 113 113 113 112 112 111 111 110 110 110 109 109 110 110 110 111 112 113 114 115 115 116 116 115 115 114 112 111 109 108 107 105 104 103 101 99 98 97 95 94 93 92
78 79 80 81 82 82 83 84 85 85 86 87 88 89 89 90 91 92 94 95 96 98 99 101 102 104 105 107 108 108 109 109 110 110 111 111 111 112 111 111 112 112 111 111 111 111 111 110 110 110 110 109 109 109 109 110 110 110 111 112 113 113 114 115 115 114 114 113 112 110 108 106 104 103 101 100 98 97 96 94 93 92 91 90 89 88
81 81 82 83 84 84 85 86 86 87 88 89 90 91 91 92 92 93 95 96 98 99 101 102 104 105 106 107 108 109 109 109 109 109 109 109 110 110 110 110 110 110 110 110 110 110 110 110 110 110 110 110 110 110 110 110 110 111 111 111 112 112 112 112 112 111 110 108 107 105 103 101 99 97 96 95 93 92 91 90 89 88 87 86 85 85
82 83 84 85 85 86 87 87 88 89 89 90 91 92 93 94 94 95 96 98 99 100 101 102 104 105 106 107 107 107 107 107 107 107 107 108 108 109 109 109 109 109 110 110 110 110 110 110 110 110 110 110 110 110 110 110 109 109 109 109 109 109 108 108 107 106 104 103 101 99 97 96 94 92 91 90 89 88 87 86 85 84 83 83 82 81
84 84 85 86 87 87 88 89 90 90 91 92 92 93 94 95 96 96 97 98 99 99 100 101 102 103 105 105 105 105 105 105 105 105 106 107 108 109 109 109 110 110 110 111 111 111 111 111 111 111 110 110 110 109 108 107 106 105 105 104 104 104 103 103 102 100 99 97 96 94 93 91 90 88 87 86 85 84 84 83 82 81 80 80 79 78
85 85 86 87 88 89 89 90 91 92 92 93 93 94 95 96 96 96 96 97 98 98 98 99 101 102 104 104 105 104 104 104 104 105 106 108 109 109 110 110 110 111 111 112 112 112 111 111 110 110 109 108 107 105 104 102 101 100 100 99 99 98 98 97 97 95 94 93 91 90 88 87 86 85 84 83 82 81 80 80 79 78 77 77 76 75
86 87 88 89 89 90 91 92 92 93 93 94 94 94 94 95 95 95 96 96 97 98 98 99 100 102 104 105 105 105 104 104 104 105 107 108 109 110 110 111 111 111 112 112 111 111 110 109 108 107 106 104 102 101 99 97 96 95 94 94 94 94 93 93 92 91 90 89 87 86 85 83 82 81 80 80 79 78 78 77 76 75 75 74 73 73
87 88 89 90 90 91 92 92 93 93 93 93 93 93 94 94 95 95 96 97 97 98 99 100 101 103 105 106 106 106 105 105 105 106 107 109 110 110 110 110 110 110 110 110 109 108 107 106 104 103 101 99 97 95 93 92 90 89 89 89 89 89 89 89 88 87 86 85 84 83 81 80 79 78 77 76 76 75 75 74 73 72 72 71 70 70
89 90 90 91 91 92 92 92 92 93 92 93 93 93 94 95 96 96 97 98 99 100 100 101 102 104 105 107 107 107 106 106 106 106 107 108 109 109 109 108 108 108 107 107 106 104 103 101 100 98 97 95 92 90 88 87 86 85 85 85 85 85 85 85 84 84 83 82 81 80 78 77 76 75 74 73 73 73 72 71 70 69 69 68 68 67
90 90 91 91 91 91 92 92 92 92 93 93 94 95 96 97 98 99 100 100 101 101 102 103 104 105 106 107 107 107 106 105 105 105 105 106 107 107 106 105 104 104 103 102 101 100 98 97 96 94 92 90 88 86 84 83 81 81 80 80 81 81 81 81 81 80 80 79 78 76 75 74 73 72 71 70 70 69 69 68 68 67 66 66 65 65
91 91 91 91 91 92 92 92 93 93 94 95 96 97 98 99 100 101 102 102 102 103 103 104 105 106 106 106 106 106 105 104 103 102 102 103 103 103 103 102 101 100 99 98 97 96 94 93 92 90 88 86 84 82 80 79 78 77 77 77 77 77 77 78 78 77 77 76 75 73 72 71 70 69 68 68 67 67 66 66 65 64 64 63 63 62
91 92 92 91 92 93 94 94 95 96 97 98 99 100 101 101 102 103 103 103 103 104 104 104 105 105 105 105 105 104 102 101 100 99 98 99 99 99 99 98 97 96 96 95 93 92 91 89 88 87 85 83 81 78 77 75 74 74 73 73 73 73 74 74 74 74 74 73 72 71 69 68 67 66 65 65 64 64 63 63 63 62 61 61 61 60
92 93 93 93 93 95 96 97 98 99 99 100 101 102 102 103 103 104 104 104 104 104 104 104 104 104 103 103 102 101 99 97 96 95 94 95 95 96 95 94 93 93 92 91 90 89 87 86 85 83 81 79 77 75 74 72 71 70 70 70 70 70 70 71 71 71 71 70 69 68 67 65 64 63 63 62 62 61 61 61 60 60 59 59 59 59
94 94 95 95 96 97 99 100 101 102 102 102 103 103 103 104 104 104 104 104 103 103 103 102 102 101 101 100 99 97 96 93 92 91 90 91 92 92 92 91 90 90 89 88 87 86 85 84 82 81 79 77 74 72 71 69 68 67 67 66 66 66 67 67 68 68 68 67 67 66 64 63 62 61 60 60 59 59 59 59 58 58 58 58 57 57
96 96 97 98 99 101 102 103 103 104 104 104 104 104 104 103 103 103 103 102 101 101 100 99 99 98 97 97 95 94 92 90 88 87 87 87 88 89 89 88 87 87 86 86 84 84 83 82 80 79 77 74 72 70 68 66 65 64 63 63 62 63 63 64 64 65 65 65 65 63 62 61 60 59 58 58 57 57 57 57 57 57 56 56 56 56
98 99 100 101 102 103 104 105 105 105 105 105 104 104 103 103 102 102 100 99 98 97 97 96 95 95 94 93 92 91 89 87 85 84 83 84 85 85 85 85 84 84 84 83 82 81 80 80 78 77 75 72 70 67 65 63 61 60 59 59 59 60 60 61 62 63 63 63 63 62 61 60 59 58 57 57 56 56 56 56 55 55 55 55 55 55
101 102 103 104 105 105 106 106 106 106 105 105 104 103 102 102 101 100 98 97 96 95 94 93 92 91 91 90 89 88 86 84 82 81 80 81 82 82 82 82 82 81 81 80 80 79 78 77 76 75 73 70 67 65 62 60 58 57 56 56 56 57 58 59 60 61 61 62 62 61 60 59 58 57 56 56 55 55 55 54 54 54 54 54 54 54
103 104 105 106 106 107 107 106 106 105 104 103 102 101 100 99 98 97 96 94 93 92 91 90 89 88 88 87 86 85 84 82 80 78 78 78 79 79 80 79 79 78 78 78 77 77 76 75 74 72 70 68 65 63 60 58 56 55 54 54 55 56 56 57 58 59 60 61 61 60 60 58 57 56 55 55 54 54 54 54 53 53 53 53 53 53
106 106 107 107 107 107 106 106 105 104 103 101 100 99 97 96 95 94 93 92 90 89 88 87 86 86 85 84 84 83 82 80 78 76 76 76 77 77 77 77 76 75 75 75 74 74 73 72 71 69 67 65 63 61 58 56 54 53 53 53 54 55 56 56 58 58 59 60 60 60 59 58 57 56 55 54 54 54 53 53 53 53 53 53 53 53
107 107 107 107 107 106 105 104 103 102 100 99 97 96 94 93 92 91 90 89 87 86 86 84 83 83 82 82 81 81 80 78 76 75 74 74 75 75 74 74 73 73 72 71 71 71 71 70 68 67 65 64 62 60 57 55 54 53 52 52 53 54 55 56 57 58 59 59 60 59 59 58 57 55 54 54 54 53 53 53 52 52 52 52 52 52
108 108 107 107 106 104 103 102 101 99 98 96 95 93 92 90 89 88 87 86 85 84 83 82 81 80 79 79 79 79 78 76 74 73 72 72 73 73 72 72 71 70 69 68 68 68 68 68 67 65 64 62 61 59 57 55 53 52 52 52 52 53 54 55 56 57 58 59 59 59 58 57 56 55 54 54 53 53 52 52 51 51 51 51 51 51
108 108 107 106 104 103 101 100 98 97 95 93 92 91 89 88 86 85 84 83 82 81 80 79 78 78 77 77 76 76 76 74 73 71 70 70 70 70 70 70 69 67 66 66 65 66 66 66 66 64 63 61 60 58 56 55 53 52 51 51 51 52 53 54 55 56 57 58 58 58 57 57 56 55 54 53 53 52 52 51 51 50 50 50 50 50
107 106 105 103 102 100 99 97 96 94 93 91 90 88 87 85 84 82 81 80 79 78 77 77 76 76 75 74 74 74 73 72 70 69 68 69 68 69 68 68 67 66 65 64 64 64 64 65 65 64 62 61 59 57 55 53 52 50 49 49 49 50 51 52 54 55 56 57 57 57 56 56 55 54 53 53 52 51 51 50 50 49 49 49 49 49
105 104 102 101 99 98 96 94 93 92 90 89 87 86 84 83 81 80 79 77 76 76 75 75 74 73 72 72 71 71 70 69 68 67 67 67 67 67 67 67 66 65 64 63 62 62 62 63 63 62 61 60 58 56 54 52 50 48 47 47 47 48 49 51 53 54 55 56 56 56 55 55 54 53 52 52 51 50 50 49 48 48 48 47 47 47
102 101 99 98 96 95 93 92 90 89 88 86 85 83 82 80 79 78 76 75 75 74 73 72 71 71 70 69 69 68 68 67 66 65 65 65 66 66 66 66 66 65 63 62 61 60 60 60 60 60 59 58 56 54 52 50 48 46 45 45 45 46 48 50 51 53 54 54 55 54 54 53 53 52 51 50 50 49 48 47 47 46 46 46 45 46
99 98 96 95 93 92 91 89 88 86 85 83 82 80 79 78 77 76 75 74 73 71 71 70 69 68 67 67 66 66 66 65 65 64 64 64 65 65 65 65 64 63 62 60 59 59 58 57 57 56 56 55 54 53 50 48 46 44 43 43 44 45 47 49 50 52 53 53 53 53 52 51 51 50 49 49 48 47 46 45 45 44 44 44 44 44
96 94 93 92 91 89 88 87 85 84 82 81 79 78 77 76 75 74 73 72 70 69 68 67 66 66 65 65 64 64 64 64 64 64 63 63 63 63 63 63 62 61 59 58 57 56 56 55 54 53 52 52 51 50 48 46 44 43 42 42 43 44 46 48 50 51 52 52 51 51 50 49 49 48 47 46 46 45 44 43 42 42 42 42 42 43
93 92 90 89 88 87 85 84 82 81 79 78 77 76 75 74 73 72 70 69 68 67 66 66 65 64 64 63 62 62 62 63 63 62 62 62 61 61 61 61 60 58 57 56 55 54 53 52 51 50 50 49 48 47 46 44 42 41 40 41 42 43 45 47 49 49 50 50 49 49 48 47 46 46 45 44 43 42 42 41 40 40 40 41 41 42
90 89 88 86 85 83 82 81 79 78 77 76 75 74 72 71 70 69 68 67 66 65 65 64 64 63 63 62 61 61 60 60 60 60 60 60 59 59 59 58 57 56 54 53 52 51 50 49 48 47 47 46 45 44 43 42 41 40 40 40 41 43 44 46 47 48 48 47 47 46 45 44 43 43 42 41 41 40 39 39 38 38 39 39 40 41
87 86 85 83 82 80 79 78 77 76 74 73 72 71 70 69 68 67 66 65 64 64 64 64 63 63 62 61 60 59 59 58 58 58 58 58 57 57 56 55 54 53 52 50 49 48 47 46 45 44 44 43 42 41 40 39 39 38 39 39 40 41 42 44 45 45 45 44 44 43 42 41 41 40 39 39 38 37 37 37 37 37 37 38 39 40
84 83 81 80 79 77 77 75 74 73 72 71 70 68 67 66 65 65 64 64 63 63 63 63 63 62 61 60 59 58 56 56 55 55 55 55 55 54 54 52 51 50 49 48 46 45 43 43 42 41 41 40 40 39 38 37 37 37 37 38 38 39 40 41 42 42 42 41 40 40 39 38 38 37 37 36 36 35 35 35 35 36 36 37 38 39
81 80 79 77 76 75 74 73 72 71 69 68 67 66 65 64 64 64 64 63 63 63 62 62 62 61 60 58 57 55 54 53 52 52 53 53 52 52 51 49 48 47 46 44 43 41 40 39 39 38 38 38 37 36 35 35 35 35 35 36 36 37 37 38 39 39 39 38 37 37 36 36 35 35 34 34 33 33 33 33 34 34 35 36 37 38
78 77 76 74 73 73 71 70 69 68 66 65 64 63 63 63 63 63 63 63 63 62 62 61 60 59 58 57 55 53 51 50 50 50 50 50 50 49 48 47 45 44 42 41 40 38 37 36 36 36 35 35 34 33 33 32 32 33 33 33 33 34 35 36 36 36 35 35 34 34 33 33 32 32 32 31 31 31 32 32 33 34 35 36 37 37
75 74 73 72 71 70 69 68 66 65 64 63 62 62 62 62 62 63 63 62 62 61 60 59 58 57 56 55 53 51 50 48 47 47 47 47 47 46 45 43 42 40 39 38 36 35 35 34 33 33 33 32 31 31 30 30 30 30 30 31 31 31 32 33 33 33 33 32 32 31 31 30 30 30 30 29 30 30 31 31 32 33 34 35 35 36
73 72 71 70 69 68 66 65 64 63 62 61 61 61 61 61 61 61 61 61 60 59 58 57 56 55 54 53 51 50 48 47 46 45 45 44 44 43 42 40 39 38 36 35 34 33 32 32 31 31 30 30 29 28 28 28 28 28 28 28 29 29 30 30 31 30 30 30 29 29 29 28 28 28 28 28 28 29 30 31 31 32 33 33 33 34
70 69 68 67 66 65 64 63 62 61 61 60 60 60 61 60 60 60 59 58 57 56 55 54 53 52 52 51 49 48 46 45 44 43 42 42 41 40 39 38 37 35 34 33 32 31 30 30 29 29 28 27 27 26 26 26 26 26 26 26 27 27 27 28 28 28 28 28 27 27 27 26 26 26 26 27 27 28 29 30 30 31 31 31 32 32
68 67 66 65 63 62 61 61 60 60 60 60 60 60 60 59 59 58 57 56 55 54 53 52 51 50 49 48 47 46 44 43 42 41 40 40 39 38 37 36 34 33 32 31 30 29 28 27 27 26 26 25 25 24 24 24 24 24 25 25 25 25 26 26 26 26 26 26 26 25 25 25 24 25 25 25 26 27 28 28 29 29 30 30 31 31
65 64 63 62 61 60 60 59 59 60 60 59 59 59 58 57 57 55 54 53 52 51 50 49 48 47 47 46 45 43 42 41 40 39 38 37 37 36 35 34 32 31 30 29 28 27 26 26 25 25 24 24 23 23 23 23 23 23 23 23 24 24 24 24 24 24 24 24 24 23 23 23 23 23 24 24 25 26 27 27 28 28 29 29 30 30
62 61 61 60 59 59 59 59 59 59 59 59 58 57 56 55 54 53 52 51 50 49 48 47 46 45 44 43 42 41 40 39 38 37 36 35 34 33 32 31 30 29 28 27 26 25 25 24 24 23 23 22 22 22 23 22 22 22 22 22 22 23 23 23 23 23 22 22 22 22 22 22 22 22 23 24 24 25 26 26 27 27 28 28 28 29
60 59 58 58 58 58 58 58 59 59 58 58 57 56 55 53 52 51 50 49 48 47 46 45 44 43 42 41 40 39 38 37 36 35 34 33 32 31 30 29 28 27 26 26 25 24 23 23 23 22 22 22 21 22 22 22 21 21 21 21 21 21 21 21 21 20 20 20 20 20 20 21 21 22 22 23 23 24 24 25 25 26 26 27 27 27
57 57 57 57 57 57 58 58 58 58 57 57 55 54 53 52 50 49 48 47 46 45 44 43 42 41 40 39 38 37 36 35 34 33 32 31 30 29 28 27 26 25 24 24 23 23 22 22 22 21 21 21 20 20 20 20 20 20 19 19 19 19 18 18 18 18 19 19 19 19 19 20 20 21 21 22 22 23 23 23 24 24 25 25 25 26
55 55 55 56 56 57 57 57 57 56 56 55 54 52 51 50 49 47 46 45 44 43 42 40 39 38 37 37 36 35 34 33 32 31 30 28 27 26 25 25 24 23 23 22 22 21 21 21 20 20 20 20 19 19 18 18 18 18 17 17 17 16 16 17 17 17 17 17 18 18 18 19 19 19 20 20 21 21 22 22 23 23 24 24 25 25
Wind_Direction
280 280 279 279 279 278 278 278 278 278 278 278 278 279 279 279 279 280 280 280 280 280 280 280 280 280 280 281 281 281 281 281 281 281 281 282 282 282 282 282 282 282 282 282 282 281 281 281 281 280 280 280 280 279 279 279 279 279 279 278 278 278 278 278 278 278 278 278 278 278 277 277 277 277 277 277 276 276 276 276 276 275 275 274 274 274
282 281 280 280 280 279 279 279 279 278 278 279 279 279 279 279 280 280 280 280 280 280 280 280 280 281 281 281 281 281 281 281 282 282 282 282 283 283 283 283 283 283 282 282 282 282 281 281 281 281 280 280 280 280 280 280 280 279 279 279 279 279 279 279 279 279 279 278 278 278 278 277 277 277 277 277 277 276 276 276 276 275 275 274 274 274
283 283 282 281 281 280 280 280 279 279 279 279 279 279 279 280 280 280 280 280 280 280 281 281 281 281 281 281 281 282 282 282 282 283 283 283 283 283 283 283 283 283 283 282 282 282 282 281 281 281 281 281 281 280 280 280 280 280 280 280 280 280 280 279 279 279 279 278 278 278 278 278 277 277 277 277 277 277 276 276 276 275 275 275 275 274
284 284 283 283 282 282 281 281 281 280 280 280 280 280 280 280 280 280 281 281 281 281 281 281 281 281 281 282 282 282 282 283 283 283 283 283 283 283 283 283 283 283 283 282 282 282 282 282 281 281 281 281 281 281 281 281 281 280 280 280 280 280 280 279 279 279 279 278 278 278 278 278 277 277 277 277 277 277 277 276 276 276 276 275 275 275
286 285 285 284 284 283 282 282 282 282 281 281 281 281 281 281 281 281 281 281 281 281 281 282 282 282 282 282 282 282 283 283 283 283 284 284 284 284 283 283 283 283 283 282 282 282 282 282 282 282 282 281 281 281 281 281 281 281 280 280 280 280 280 279 279 279 279 278 278 278 278 278 278 278 278 278 278 277 277 277 277 276 276 276 276 275
287 286 286 285 285 284 284 283 283 283 282 282 282 282 282 282 282 282 282 282 282 282 282 282 282 282 282 283 283 283 283 283 283 284 284 284 284 283 283 283 283 283 283 283 283 282 282 282 282 282 282 282 282 281 281 281 281 281 280 280 280 280 280 279 279 279 279 278 278 278 278 278 278 278 278 278 278 278 278 277 277 277 277 276 276 275
288 287 287 286 286 285 285 284 284 284 283 283 283 283 282 282 282 282 282 282 282 283 283 283 283 283 283 283 283 283 283 284 284 284 284 284 284 284 284 283 283 283 283 283 283 283 283 282 282 282 282 282 281 281 281 281 281 280 280 280 280 280 280 279 279 279 279 279 279 279 279 279 279 279 279 279 279 278 278 278 277 277 277 276 276 275
289 288 287 287 286 286 285 285 285 284 284 284 284 284 283 283 283 283 283 283 283 283 284 284 284 284 284 284 284 284 284 284 284 284 284 284 284 284 284 284 284 284 283 283 283 283 283 282 282 282 282 282 281 281 281 281 281 281 280 280 280 280 280 280 280 280 280 279 279 279 279 279 279 279 279 279 279 278 278 278 277 277 276 276 275 275
290 289 289 288 287 287 287 286 286 285 285 285 285 285 285 285 285 284 284 284 284 284 285 285 285 285 284 284 284 284 284 285 285 285 285 285 285 284 284 284 284 284 284 283 283 283 282 282 282 282 282 281 281 281 281 281 281 281 281 281 281 281 281 280 280 280 280 280 280 280 280 280 280 280 279 279 279 278 278 277 277 276 276 275 275 274
290 290 290 289 288 288 288 288 287 287 286 286 286 286 286 286 286 286 286 286 286 286 286 286 286 286 285 285 285 285 285 285 285 285 285 285 285 285 285 284 284 284 284 283 283 283 282 282 282 282 282 282 282 281 281 281 281 282 282 281 281 281 281 281 281 281 280 280 280 280 280 280 280 280 279 279 278 278 277 277 276 276 275 275 274 273
291 291 290 290 289 289 289 288 288 288 288 287 287 287 287 287 287 287 287 287 287 286 286 286 286 286 286 286 286 286 286 286 286 286 286 285 285 285 285 284 284 284 284 283 283 283 283 282 282 282 282 282 282 282 282 282 282 282 282 282 282 282 281 281 281 281 281 281 281 280 280 280 280 279 279 278 278 277 277 276 276 275 275 274 273 273
292 291 291 290 290 290 289 289 289 289 288 288 288 288 287 287 287 287 287 287 287 287 287 287 287 287 287 287 287 287 286 286 286 286 286 286 286 285 285 285 284 284 284 283 283 283 283 283 283 283 283 283 283 283 283 283 283 283 283 282 282 282 282 281 281 281 281 281 281 280 280 280 280 279 279 278 278 277 277 276 275 275 274 274 273 272
292 292 291 291 290 290 290 290 289 289 289 288 288 288 288 288 288 288 288 288 288 288 288 288 288 288 287 287 287 287 287 287 287 287 287 286 286 286 285 285 285 284 284 284 284 283 283 283 283 283 283 283 283 283 283 283 283 283 283 283 282 282 282 281 281 281 281 281 280 280 280 280 279 279 278 278 277 277 276 275 275 274 274 273 272 272
292 292 292 291 291 291 291 290 290 290 290 289 289 289 289 290 290 290 289 289 289 289 289 289 289 288 288 288 287 287 287 287 287 287 287 287 286 286 286 285 285 285 285 284 284 284 284 284 284 284 284 284 284 284 284 284 284 283 283 283 282 282 282 281 281 281 281 280 280 280 280 279 279 278 278 277 277 276 276 275 275 274 273 273 272 271
293 293 293 292 292 292 292 291 291 291 291 291 291 291 291 291 291 291 291 291 291 290 290 290 289 289 288 288 287 287 287 287 287 287 287 287 286 286 286 286 286 285 285 285 285 285 285 285 284 284 284 284 284 284 284 284 284 284 283 283 282 282 282 281 281 281 280 280 280 280 279 279 279 278 278 277 277 276 275 275 274 274 273 272 272 271
294 294 294 293 293 293 293 293 293 293 293 293 293 293 293 293 293 293 292 292 291 291 291 290 290 289 289 288 288 287 287 287 287 287 287 287 287 287 286 286 286 286 286 286 286 285 285 285 285 285 285 284 284 284 284 284 284 284 283 283 282 282 281 281 281 281 280 280 280 280 279 279 278 278 277 277 276 276 275 274 274 273 272 272 271 270
295 295 295 295 294 294 294 294 294 294 294 294 295 295 294 294 294 294 293 292 292 291 291 291 290 290 289 289 288 288 288 288 288 288 288 288 288 287 287 287 287 287 287 286 286 286 286 286 285 285 285 285 285 285 285 284 284 284 283 283 282 282 281 281 281 281 280 280 280 279 279 279 278 278 277 277 276 275 275 274 273 273 272 271 271 270
296 296 296 296 296 296 296 296 296 296 296 296 296 296 295 295 294 294 293 293 292 292 291 291 291 290 290 290 289 289 289 289 289 289 289 289 289 288 288 288 288 287 287 287 287 287 286 286 286 286 286 285 285 285 285 285 284 284 283 283 282 282 281 281 281 280 280 280 280 279 279 278 278 277 277 276 276 275 274 274 273 273 272 271 270 270
297 297 297 297 297 297 297 297 297 297 298 297 297 297 296 296 295 294 294 293 293 292 292 292 291 291 290 290 290 290 290 290 290 290 290 290 289 289 289 288 288 288 287 287 287 287 287 287 286 286 286 286 286 286 285 285 284 284 283 282 282 282 281 281 281 280 280 280 279 279 279 278 278 277 276 276 275 275 274 273 273 272 272 271 270 269
298 298 298 298 299 299 299 299 299 299 298 298 298 297 297 296 295 295 294 294 293 293 293 292 292 291 291 291 290 290 290 291 291 291 291 291 290 290 289 289 289 288 288 288 287 287 287 287 287 286 286 286 286 286 286 285 284 284 283 282 282 281 281 281 280 280 280 279 279 279 278 278 277 276 276 275 275 274 274 273 272 272 271 270 270 269
299 299 299 300 300 300 300 300 300 299 299 299 298 297 297 296 296 295 295 294 294 294 293 293 293 292 292 292 292 291 291 292 292 292 292 291 291 290 290 289 289 289 288 288 288 288 287 287 287 287 287 287 286 286 286 285 285 284 283 283 282 281 281 280 280 280 279 279 278 278 278 277 276 276 275 275 274 274 273 273 272 271 271 270 269 269
301 301 301 301 301 301 301 301 300 300 299 299 298 298 297 297 296 296 295 295 295 295 294 294 294 293 293 293 293 292 292 292 293 292 292 292 291 290 290 290 289 289 289 289 288 288 288 288 287 287 287 287 287 286 286 285 285 284 283 282 282 281 280 280 280 279 279 278 278 277 277 276 276 275 275 274 273 273 272 272 271 271 270 270 269 269
302 302 302 303 302 302 302 301 301 300 299 299 298 298 297 297 297 297 296 296 296 296 295 295 295 294 294 294 294 293 293 293 293 293 293 292 291 291 290 290 290 290 289 289 289 289 289 288 288 288 288 287 287 287 286 286 285 284 283 282 281 281 280 279 279 278 278 278 277 277 276 276 275 274 274 273 273 272 272 271 271 270 270 269 269 268
303 303 303 303 303 302 302 301 301 300 299 299 299 298 298 298 297 297 297 297 296 296 296 296 296 295 295 295 294 294 294 294 294 293 293 292 292 291 291 291 290 290 290 290 290 290 289 289 289 288 288 288 288 287 287 286 285 284 283 282 281 280 279 278 278 278 277 277 277 276 275 275 274 274 273 272 272 271 271 271 270 270 270 269 269 268
304 304 304 303 303 302 302 301 301 300 300 299 299 299 299 298 298 298 298 297 297 297 297 297 296 296 296 295 295 294 294 294 294 294 293 292 292 291 291 291 291 291 290 290 290 290 290 290 289 289 289 289 288 288 287 286 285 284 283 282 280 279 278 277 277 277 276 276 276 275 275 274 273 273 272 272 271 271 270 270 270 269 269 269 268 268
304 304 304 303 303 302 302 301 301 300 300 300 300 300 299 299 299 299 299 298 298 298 298 297 297 296 296 296 295 295 295 294 294 294 293 293 292 291 291 291 291 291 291 291 290 290 290 290 290 290 289 289 289 288 287 286 285 284 283 281 280 278 277 276 276 275 275 275 275 274 274 273 273 272 272 271 271 270 270 269 269 269 269 268 268 268
304 304 304 303 303 302 302 301 301 301 301 300 300 300 300 300 300 300 300 299 299 299 299 298 298 297 297 296 296 295 295 295 295 294 294 293 292 291 291 291 291 291 291 291 291 290 290 290 290 290 290 289 289 288 287 286 285 284 282 281 279 278 277 276 275 274 274 274 274 273 273 273 272 271 271 270 270 269 269 269 268 268 268 268 268 267
304 304 303 303 302 302 302 302 301 301 301 301 301 301 301 301 301 300 300 300 300 299 299 299 298 298 297 297 296 296 296 295 295 295 294 293 292 292 291 291 291 291 291 291 291 291 290 290 290 290 290 290 289 288 287 286 285 283 282 280 279 277 276 275 274 273 273 273 272 272 272 272 271 271 270 269 269 269 268 268 268 267 267 267 267 267
304 304 303 303 302 302 302 302 302 302 302 302 302 302 302 301 301 301 301 300 300 300 300 299 299 298 298 297 297 296 296 296 296 295 295 294 293 292 292 291 291 291 291 291 291 291 290 290 290 290 290 289 289 288 287 286 285 283 281 280 278 277 275 274 273 272 272 271 271 271 271 271 270 270 269 268 268 268 267 267 267 267 266 266 266 266
304 304 303 303 303 303 302 302 302 302 302 302 302 302 302 302 302 301 301 301 301 300 300 300 299 299 298 298 297 297 297 296 296 296 295 294 293 293 292 292 292 291 291 291 291 291 291 290 290 290 290 289 289 288 287 286 285 283 281 279 277 276 275 273 272 271 271 270 270 270 270 270 269 269 268 267 267 267 266 266 266 266 266 266 266 266
304 304 303 303 303 303 303 303 303 303 303 303 303 303 303 302 302 302 302 301 301 301 300 300 300 299 299 298 298 297 297 297 297 296 296 295 294 293 293 293 292 292 292 291 291 291 291 291 290 290 289 289 288 288 287 286 285 283 281 279 277 275 274 272 271 270 270 269 269 269 269 268 268 268 267 266 266 266 265 265 265 265 265 265 265 265
304 304 303 303 303 303 304 304 304 304 304 304 304 303 303 303 303 303 302 302 302 301 301 300 300 299 299 298 298 297 297 297 297 297 296 295 295 294 294 293 293 293 292 292 291 291 291 290 290 290 289 289 288 287 286 285 284 283 281 279 277 275 273 271 270 269 269 268 268 268 267 267 267 267 266 266 265 265 265 264 264 264 264 264 264 265
304 304 304 304 304 304 304 304 304 304 304 304 304 304 304 304 303 303 303 303 302 302 301 301 300 299 299 298 298 298 297 297 297 297 297 296 295 295 294 294 293 293 293 292 292 291 290 290 290 290 289 289 288 287 286 285 284 282 280 278 276 274 272 270 269 268 267 267 267 267 267 266 266 266 266 265 265 264 264 264 264 263 263 264 264 264
304 304 304 304 304 304 305 305 305 305 305 305 305 305 304 304 304 304 304 303 303 302 301 301 300 300 299 299 298 298 298 298 298 297 297 296 295 295 294 294 293 293 293 292 292 291 290 289 289 289 289 289 288 287 286 285 283 282 280 277 275 273 271 269 268 267 267 266 266 266 266 266 266 266 265 265 265 264 264 264 263 263 263 263 263 263
304 304 304 305 305 305 305 305 305 305 305 305 305 305 305 305 305 304 304 304 303 302 302 301 300 300 300 299 299 299 299 298 298 298 297 296 295 295 294 294 293 293 293 292 292 291 290 290 289 289 289 288 288 287 286 285 284 282 279 276 274 271 269 268 267 266 266 266 266 266 266 266 266 266 266 265 265 265 264 264 263 263 262 262 262 262
304 305 305 305 305 305 306 306 306 306 306 306 306 306 306 306 305 305 304 304 303 303 302 301 301 300 300 300 300 300 299 299 299 298 297 296 295 295 294 294 293 293 293 293 292 291 291 290 289 289 288 288 288 287 286 285 283 281 278 275 272 270 268 267 266 266 266 266 266 266 267 267 267 266 266 266 266 265 265 264 263 262 262 261 261 261
305 305 305 306 306 306 306 306 306 306 306 306 306 306 306 306 305 305 304 304 304 303 303 302 301 301 301 300 300 300 300 300 299 298 298 297 296 295 294 294 294 293 293 293 292 292 291 291 290 289 289 288 287 286 286 284 283 280 277 274 271 269 267 266 266 266 267 267 267 268 268 268 268 268 267 267 266 266 265 264 263 262 261 260 259 259
305 306 306 306 306 307 307 307 307 307 307 307 307 307 306 306 306 305 305 304 304 304 303 303 303 302 302 302 301 301 301 300 300 299 298 297 296 295 295 294 294 294 294 294 293 293 292 291 291 290 289 288 287 286 285 284 282 279 276 273 270 269 268 267 267 268 268 269 269 269 269 269 269 268 268 267 266 265 264 263 262 260 259 259 259 259
306 306 306 307 307 307 307 307 307 307 307 307 307 307 307 306 306 306 305 305 305 305 305 304 304 303 303 303 303 302 302 301 300 300 298 297 296 296 295 295 295 295 295 295 294 294 293 292 291 290 289 288 286 285 284 283 281 278 275 273 271 270 269 269 269 269 270 270 271 271 271 270 270 269 268 267 266 265 264 262 261 260 258 258 258 258
306 307 307 307 307 307 307 307 307 307 307 307 307 307 307 307 307 306 306 306 306 306 306 305 305 305 304 304 304 304 303 302 301 300 299 298 297 296 296 296 296 296 296 296 295 295 294 293 292 290 288 287 286 285 284 282 280 278 276 274 273 272 271 270 270 271 271 272 272 272 271 271 270 269 268 267 265 264 262 261 260 259 258 257 257 257
307 307 307 307 308 308 307 308 308 308 308 308 308 308 308 308 308 308 308 307 307 307 307 306 306 306 305 305 305 304 304 303 302 301 299 298 298 298 298 298 298 297 297 297 296 295 294 293 291 289 288 287 286 285 284 282 280 278 277 276 275 273 272 272 272 272 272 272 272 272 271 270 269 268 267 266 264 263 261 260 259 257 257 257 257 257
307 308 308 308 308 308 308 308 308 308 308 308 309 309 309 309 309 309 309 309 309 308 308 308 307 307 306 306 306 305 305 304 303 302 300 299 299 299 299 299 299 298 298 297 296 295 293 292 290 289 288 287 286 286 285 283 281 279 278 277 276 274 273 272 272 272 272 273 272 271 270 270 268 267 266 264 263 261 260 259 258 257 256 256 257 258
308 308 308 308 308 308 308 308 309 309 309 309 310 310 310 310 310 310 310 310 310 309 309 309 308 308 308 307 307 307 306 305 304 303 302 301 300 300 300 300 299 299 298 297 296 294 293 291 290 289 288 288 287 286 285 283 282 280 279 277 276 275 274 273 273 273 273 273 272 271 270 269 267 266 264 263 261 260 259 258 257 256 256 257 258 259
308 308 308 308 308 309 309 309 309 310 310 310 311 311 311 311 311 311 311 311 311 310 310 310 309 309 309 308 308 308 307 307 305 304 303 302 302 301 301 301 300 299 298 297 295 294 292 291 290 289 289 288 288 287 286 284 282 281 279 278 277 276 275 274 274 274 273 272 271 270 269 267 266 264 263 261 260 259 258 257 257 257 258 258 259 260
309 309 309 309 309 309 310 310 310 311 311 311 312 312 312 312 312 312 312 311 311 311 311 311 310 310 310 310 309 309 309 308 307 306 305 304 303 303 302 301 301 299 298 297 295 294 293 292 291 291 290 289 288 287 286 284 283 281 280 279 277 276 275 274 274 273 273 272 271 269 268 266 265 263 262 260 259 258 258 257 257 258 259 259 260 260
309 309 309 309 310 310 310 311 311 312 312 312 313 313 313 313 313 313 312 312 312 312 312 312 312 311 311 311 311 310 310 309 308 307 306 305 305 304 303 302 302 300 299 298 296 295 294 293 292 292 291 290 289 287 286 284 283 281 280 279 277 276 275 274 274 273 272 271 271 269 268 267 265 263 262 260 259 258 258 258 258 259 259 259 259 259
309 309 310 310 310 311 311 312 312 313 313 313 313 314 314 314 314 314 314 314 314 313 313 313 313 313 313 312 312 312 312 311 310 309 308 307 306 305 305 304 303 301 300 299 297 296 295 294 293 292 291 290 289 287 286 285 283 282 281 280 279 277 276 276 275 275 274 273 272 271 269 267 265 263 261 260 259 259 259 259 259 259 259 259 258 258
310 310 310 311 311 312 312 313 313 313 314 314 314 315 315 315 315 315 315 315 315 315 315 315 314 314 314 314 313 313 313 312 312 311 310 309 308 307 306 305 304 302 301 300 299 298 296 295 294 293 292 290 289 289 288 287 286 284 283 282 281 280 279 278 278 277 276 274 273 271 269 267 265 263 261 260 259 259 259 259 259 259 259 259 259 259
310 311 311 312 312 313 313 314 314 314 315 315 316 316 316 316 316 317 317 317 317 316 316 316 316 316 316 315 315 315 314 314 313 312 311 310 309 308 307 306 304 303 302 301 300 299 298 296 295 294 294 293 292 291 291 291 290 289 288 286 285 284 282 281 279 277 276 274 272 270 268 266 264 263 262 260 260 260 260 260 260 260 260 260 260 261
311 311 312 312 313 313 314 314 315 315 316 316 317 317 317 318 318 318 318 318 318 318 318 318 317 317 317 317 316 316 315 315 314 313 312 311 310 309 307 306 305 304 302 302 301 300 299 298 298 297 297 296 296 296 295 295 294 293 292 290 288 286 283 281 279 276 274 273 271 269 267 266 265 264 263 262 262 261 261 261 261 261 261 261 261 261
312 312 313 313 314 314 315 315 316 317 317 317 318 318 319 319 320 320 320 320 319 319 319 319 319 319 319 319 318 318 317 316 315 314 313 312 311 310 309 307 306 305 304 303 302 301 301 301 301 301 300 301 300 300 300 299 298 297 295 292 289 286 283 280 277 275 273 272 270 269 268 267 266 265 265 264 263 263 262 262 262 262 262 261 261 262
Height
10437 10435 10433 10432 10430 10427 10423 10422 10420 10418 10415 10413 10412 10410 10407 10405 10403 10402 10400 10398 10396 10394 10392 10390 10387 10385 10382 10380 10378 10376 10374 10373 10372 10371 10370 10368 10368 10367 10366 10365 10363 10362 10360 10358 10357 10355 10353 10351 10350 10348 10347 10345 10344 10342 10341 10339 10338 10336 10335 10333 10331 10329 10327 10325 10323 10320 10318 10317 10314 10313 10311 10309 10308 10307 10305 10305 10304 10304 10303 10303 10302 10300 10298 10297 10296 10295
10431 10429 10427 10425 10423 10420 10417 10415 10413 10412 10408 10406 10405 10403 10401 10399 10397 10395 10393 10390 10388 10386 10383 10381 10378 10376 10373 10371 10368 10367 10365 10363 10362 10362 10360 10360 10358 10358 10357 10355 10353 10352 10350 10348 10346 10344 10342 10340 10339 10337 10336 10334 10333 10332 10330 10328 10327 10325 10323 10321 10319 10317 10314 10312 10310 10308 10305 10303 10301 10299 10297 10296 10295 10294 10293 10293 10292 10292 10292 10290 10289 10288 10287 10285 10284 10283
10424 10422 10420 10418 10417 10413 10410 10407 10406 10405 10403 10400 10398 10396 10395 10392 10390 10387 10385 10383 10380 10378 10375 10373 10370 10367 10365 10362 10360 10358 10356 10355 10353 10352 10352 10350 10349 10348 10347 10345 10343 10341 10339 10337 10335 10333 10332 10330 10328 10327 10325 10323 10322 10320 10318 10317 10315 10313 10311 10309 10307 10304 10302 10299 10297 10295 10292 10290 10288 10286 10285 10283 10282 10282 10281 10281 10280 10280 10279 10278 10277 10275 10274 10273 10272 10271
10418 10415 10413 10411 10409 10407 10403 10401 10398 10397 10395 10393 10392 10389 10387 10385 10383 10380 10378 10376 10373 10370 10367 10365 10362 10359 10356 10353 10351 10349 10347 10346 10345 10343 10342 10341 10340 10338 10337 10335 10333 10331 10328 10326 10324 10322 10320 10319 10317 10315 10314 10312 10310 10308 10307 10305 10303 10301 10299 10297 10294 10292 10289 10287 10284 10282 10280 10277 10275 10273 10272 10271 10270 10270 10270 10270 10269 10268 10267 10266 10264 10263 10262 10261 10260 10258
10412 10409 10407 10405 10402 10399 10397 10395 10392 10390 10388 10387 10385 10382 10380 10378 10376 10373 10371 10368 10365 10362 10359 10357 10354 10351 10348 10345 10342 10340 10339 10337 10336 10335 10333 10332 10330 10328 10327 10325 10322 10320 10318 10315 10313 10312 10310 10308 10306 10304 10302 10301 10299 10297 10295 10293 10291 10289 10287 10284 10282 10279 10277 10274 10272 10269 10267 10265 10263 10262 10260 10259 10259 10258 10258 10258 10257 10256 10255 10253 10252 10250 10249 10248 10247 10246
10405 10403 10400 10398 10395 10392 10390 10387 10385 10383 10381 10379 10377 10375 10373 10371 10368 10366 10363 10360 10358 10355 10352 10348 10346 10343 10340 10336 10333 10332 10330 10329 10328 10326 10324 10322 10320 10318 10317 10314 10312 10310 10307 10305 10302 10300 10298 10297 10295 10293 10291 10289 10287 10285 10283 10281 10279 10277 10275 10272 10270 10267 10265 10262 10260 10257 10255 10253 10251 10250 10249 10248 10248 10247 10247 10246 10245 10243 10242 10240 10238 10238 10237 10235 10234 10233
10398 10396 10394 10392 10388 10386 10383 10381 10378 10376 10374 10372 10370 10368 10366 10364 10362 10359 10356 10353 10350 10347 10344 10341 10338 10335 10331 10328 10325 10323 10322 10321 10319 10317 10315 10313 10310 10308 10306 10304 10301 10298 10296 10293 10291 10288 10287 10285 10282 10280 10278 10277 10275 10273 10271 10269 10267 10265 10263 10260 10258 10255 10253 10250 10247 10245 10243 10241 10239 10238 10237 10237 10237 10236 10235 10234 10233 10231 10229 10228 10226 10225 10224 10223 10222 10220
10391 10388 10387 10385 10382 10378 10376 10373 10372 10369 10367 10365 10362 10360 10358 10356 10354 10352 10348 10345 10342 10339 10336 10333 10329 10325 10322 10319 10317 10314 10313 10312 10310 10308 10305 10302 10300 10298 10296 10293 10290 10287 10284 10282 10279 10277 10275 10272 10270 10268 10267 10265 10263 10261 10259 10257 10255 10253 10251 10248 10247 10244 10241 10238 10235 10233 10230 10228 10227 10227 10226 10225 10225 10225 10223 10222 10220 10218 10217 10215 10214 10213 10212 10211 10210 10209
10385 10381 10378 10377 10375 10372 10368 10365 10363 10362 10360 10357 10355 10353 10351 10348 10346 10343 10341 10338 10335 10331 10328 10325 10320 10316 10312 10309 10307 10305 10303 10302 10300 10298 10295 10292 10289 10286 10284 10282 10278 10275 10272 10270 10267 10265 10262 10260 10258 10257 10255 10253 10251 10249 10248 10246 10244 10242 10240 10237 10235 10232 10229 10226 10223 10220 10218 10216 10215 10214 10214 10214 10213 10212 10211 10209 10208 10206 10205 10203 10202 10202 10200 10200 10198 10198
10377 10375 10371 10368 10366 10364 10362 10357 10354 10353 10352 10350 10347 10345 10343 10341 10338 10335 10332 10329 10326 10323 10320 10316 10312 10307 10303 10298 10297 10295 10294 10292 10290 10287 10285 10282 10278 10275 10272 10269 10267 10263 10260 10257 10254 10252 10250 10248 10247 10245 10243 10242 10240 10238 10237 10235 10233 10231 10229 10227 10223 10220 10217 10214 10211 10208 10206 10204 10203 10202 10202 10202 10202 10200 10199 10197 10195 10194 10193 10192 10191 10190 10190 10189 10188 10187
10369 10367 10364 10360 10358 10356 10354 10350 10347 10345 10343 10342 10338 10337 10335 10333 10332 10328 10324 10320 10317 10314 10311 10307 10303 10298 10294 10289 10285 10283 10283 10282 10280 10276 10273 10270 10267 10264 10261 10258 10255 10251 10248 10245 10242 10240 10238 10237 10235 10233 10232 10230 10228 10227 10226 10224 10222 10220 10218 10215 10212 10208 10205 10202 10198 10196 10194 10192 10192 10191 10190 10190 10190 10189 10187 10186 10185 10183 10182 10182 10180 10180 10179 10178 10178 10177
10361 10358 10356 10353 10350 10347 10345 10343 10340 10338 10336 10333 10330 10328 10325 10324 10323 10321 10317 10313 10308 10305 10302 10297 10293 10288 10285 10280 10277 10273 10272 10270 10268 10265 10262 10258 10254 10251 10248 10246 10243 10240 10237 10233 10230 10228 10226 10225 10223 10222 10220 10218 10217 10216 10215 10213 10212 10209 10207 10203 10200 10196 10193 10189 10187 10184 10182 10181 10180 10180 10179 10179 10178 10178 10177 10175 10174 10173 10172 10171 10170 10170 10169 10169 10168 10168
10353 10351 10348 10345 10342 10340 10337 10334 10332 10329 10327 10325 10323 10320 10317 10314 10313 10312 10308 10305 10300 10297 10293 10289 10283 10278 10273 10270 10267 10264 10262 10260 10258 10255 10251 10247 10242 10238 10236 10233 10230 10227 10225 10222 10219 10217 10215 10214 10213 10211 10208 10207 10206 10205 10203 10202 10200 10198 10195 10192 10188 10184 10180 10178 10175 10173 10172 10170 10170 10169 10168 10168 10168 10167 10166 10165 10164 10163 10162 10162 10161 10160 10160 10159 10158 10158
10346 10343 10340 10337 10335 10332 10329 10327 10323 10321 10318 10317 10315 10312 10309 10306 10303 10302 10298 10295 10291 10287 10285 10281 10275 10268 10262 10258 10256 10254 10252 10251 10248 10245 10242 10236 10230 10227 10224 10222 10219 10215 10212 10210 10207 10205 10203 10203 10202 10200 10197 10196 10195 10194 10193 10191 10190 10187 10184 10180 10177 10173 10169 10167 10164 10162 10161 10160 10160 10159 10158 10158 10158 10157 10156 10155 10154 10153 10153 10152 10152 10151 10150 10150 10150 10149
10338 10336 10333 10329 10326 10323 10321 10318 10316 10313 10310 10308 10306 10304 10301 10297 10294 10292 10289 10285 10280 10277 10274 10270 10265 10258 10253 10248 10245 10243 10243 10242 10239 10235 10232 10226 10220 10215 10213 10212 10208 10204 10200 10198 10195 10193 10191 10191 10190 10188 10186 10185 10183 10183 10182 10181 10179 10177 10173 10169 10165 10162 10158 10156 10154 10152 10151 10150 10150 10149 10149 10148 10148 10147 10147 10146 10145 10144 10143 10143 10142 10142 10142 10141 10141 10141
10332 10328 10325 10322 10318 10315 10312 10310 10308 10305 10302 10299 10297 10295 10292 10288 10284 10281 10278 10275 10270 10267 10263 10260 10255 10248 10242 10236 10233 10232 10233 10233 10230 10225 10221 10216 10209 10203 10202 10200 10197 10193 10188 10185 10183 10182 10180 10178 10177 10176 10174 10173 10173 10172 10172 10171 10169 10166 10163 10159 10155 10152 10148 10146 10144 10143 10142 10141 10140 10140 10140 10139 10139 10138 10137 10137 10136 10135 10134 10134 10133 10133 10133 10133 10132 10132
10323 10320 10317 10313 10310 10307 10305 10302 10299 10297 10293 10291 10288 10285 10282 10278 10275 10271 10267 10263 10260 10257 10253 10249 10245 10240 10233 10226 10221 10219 10221 10222 10220 10215 10210 10205 10199 10193 10190 10189 10187 10182 10177 10173 10172 10170 10168 10167 10165 10164 10163 10162 10162 10162 10162 10161 10159 10157 10153 10150 10146 10142 10140 10137 10135 10133 10132 10132 10131 10131 10130 10130 10130 10130 10128 10128 10127 10126 10125 10125 10125 10125 10125 10124 10124 10124
10315 10312 10309 10305 10302 10300 10297 10293 10290 10287 10285 10282 10280 10276 10272 10268 10265 10261 10257 10253 10250 10246 10242 10238 10234 10229 10224 10218 10212 10208 10208 10210 10208 10205 10200 10194 10188 10182 10178 10177 10175 10170 10166 10163 10160 10159 10158 10156 10154 10153 10152 10152 10152 10152 10152 10151 10149 10147 10143 10140 10137 10133 10131 10128 10127 10125 10123 10123 10123 10122 10122 10122 10122 10121 10120 10120 10118 10118 10117 10117 10117 10117 10117 10117 10117 10116
10307 10303 10301 10298 10295 10292 10288 10285 10282 10279 10276 10273 10270 10266 10262 10257 10253 10250 10246 10242 10239 10235 10232 10227 10222 10218 10213 10208 10203 10199 10198 10199 10198 10194 10189 10183 10177 10170 10167 10165 10163 10159 10155 10152 10150 10148 10147 10145 10143 10142 10142 10142 10142 10142 10142 10142 10140 10137 10135 10132 10128 10125 10122 10120 10118 10117 10115 10115 10114 10114 10113 10113 10113 10113 10112 10112 10110 10110 10109 10109 10109 10109 10109 10109 10109 10109
10298 10295 10292 10290 10287 10283 10279 10276 10273 10271 10268 10264 10260 10257 10252 10247 10243 10239 10235 10231 10228 10225 10220 10217 10212 10207 10202 10198 10193 10190 10188 10189 10188 10184 10179 10173 10166 10160 10155 10154 10152 10148 10145 10142 10140 10138 10137 10135 10134 10133 10133 10133 10133 10133 10133 10132 10130 10128 10126 10123 10120 10117 10115 10112 10110 10108 10107 10107 10107 10106 10106 10106 10105 10105 10105 10104 10103 10102 10102 10102 10102 10102 10102 10102 10102 10102
10290 10287 10283 10282 10280 10276 10271 10267 10263 10260 10257 10254 10250 10246 10242 10237 10233 10228 10224 10221 10217 10213 10209 10205 10200 10195 10191 10187 10183 10180 10178 10178 10177 10173 10169 10163 10156 10150 10145 10143 10141 10138 10135 10132 10130 10129 10128 10126 10125 10123 10123 10124 10125 10125 10124 10123 10122 10120 10118 10115 10112 10110 10107 10105 10102 10101 10100 10099 10098 10098 10098 10098 10098 10098 10097 10097 10096 10095 10095 10095 10095 10095 10095 10095 10095 10095
10283 10278 10275 10273 10270 10267 10263 10258 10253 10250 10247 10243 10240 10235 10231 10227 10222 10218 10213 10210 10207 10203 10198 10193 10188 10184 10180 10177 10172 10169 10168 10168 10167 10164 10159 10153 10146 10139 10135 10133 10132 10128 10125 10122 10121 10120 10118 10117 10115 10115 10115 10115 10116 10116 10116 10115 10113 10112 10110 10107 10105 10102 10100 10097 10095 10093 10092 10092 10091 10091 10091 10091 10091 10091 10090 10090 10090 10089 10088 10088 10088 10088 10088 10088 10088 10088
10275 10271 10267 10263 10260 10257 10253 10248 10244 10240 10236 10233 10229 10225 10221 10217 10213 10208 10203 10200 10196 10192 10188 10183 10178 10173 10170 10165 10162 10159 10158 10158 10157 10155 10150 10144 10137 10130 10126 10124 10122 10119 10116 10113 10112 10110 10109 10107 10106 10105 10106 10107 10107 10108 10108 10107 10106 10104 10102 10100 10098 10095 10093 10090 10088 10087 10085 10085 10084 10084 10084 10084 10084 10084 10083 10083 10083 10083 10082 10082 10082 10081 10081 10081 10081 10081
10265 10262 10258 10255 10251 10247 10243 10238 10234 10230 10225 10222 10218 10214 10210 10207 10203 10198 10194 10190 10187 10182 10178 10173 10168 10163 10159 10155 10152 10149 10147 10148 10147 10145 10141 10135 10128 10122 10118 10115 10113 10111 10108 10105 10103 10102 10100 10098 10097 10097 10097 10098 10099 10100 10100 10100 10098 10097 10095 10093 10092 10089 10087 10084 10082 10080 10078 10078 10077 10077 10077 10077 10077 10077 10077 10077 10077 10077 10076 10076 10075 10075 10075 10075 10075 10075
10257 10253 10250 10245 10242 10237 10233 10228 10224 10220 10216 10213 10209 10205 10201 10196 10192 10187 10183 10180 10177 10173 10168 10164 10160 10155 10150 10146 10142 10139 10138 10138 10138 10137 10132 10127 10120 10115 10110 10108 10106 10103 10100 10097 10095 10093 10092 10090 10088 10088 10088 10089 10090 10092 10092 10092 10092 10090 10089 10087 10085 10083 10080 10078 10076 10074 10072 10071 10070 10070 10070 10071 10071 10071 10071 10071 10071 10070 10070 10070 10070 10069 10069 10069 10068 10068
10250 10245 10242 10237 10232 10228 10223 10219 10215 10210 10207 10202 10198 10193 10190 10185 10180 10177 10172 10169 10166 10163 10158 10155 10150 10146 10142 10138 10133 10130 10128 10128 10129 10128 10124 10118 10113 10107 10103 10101 10099 10096 10093 10090 10088 10086 10084 10082 10080 10080 10080 10081 10082 10083 10084 10084 10084 10083 10082 10080 10078 10076 10074 10072 10070 10068 10066 10065 10064 10063 10063 10064 10065 10065 10065 10065 10065 10065 10064 10064 10064 10063 10063 10063 10063 10063
10240 10237 10232 10227 10223 10218 10213 10208 10204 10200 10196 10192 10188 10185 10180 10177 10172 10167 10163 10159 10156 10153 10149 10145 10141 10137 10133 10129 10125 10122 10120 10119 10119 10118 10115 10111 10105 10100 10097 10094 10092 10090 10087 10084 10081 10079 10077 10075 10073 10073 10073 10073 10074 10075 10076 10077 10077 10077 10076 10074 10072 10070 10068 10065 10063 10062 10060 10058 10057 10057 10057 10058 10058 10059 10059 10059 10059 10058 10058 10058 10058 10058 10058 10057 10057 10057
10231 10227 10222 10217 10213 10208 10203 10199 10195 10190 10187 10183 10179 10175 10172 10168 10163 10158 10154 10150 10147 10143 10140 10136 10132 10128 10124 10120 10116 10113 10111 10110 10110 10110 10107 10102 10098 10093 10090 10087 10085 10083 10080 10078 10075 10072 10070 10068 10067 10067 10066 10067 10067 10067 10068 10070 10070 10070 10069 10067 10065 10063 10061 10059 10057 10055 10053 10052 10051 10051 10051 10052 10052 10053 10053 10053 10053 10053 10053 10053 10053 10053 10052 10052 10052 10051
10222 10217 10212 10208 10203 10199 10194 10190 10185 10182 10177 10173 10170 10167 10163 10159 10155 10151 10146 10143 10139 10135 10131 10128 10124 10121 10117 10113 10108 10105 10102 10102 10102 10101 10098 10094 10090 10086 10083 10080 10078 10077 10075 10072 10069 10066 10063 10062 10060 10060 10060 10060 10060 10060 10062 10063 10063 10063 10062 10061 10058 10057 10055 10052 10050 10048 10047 10046 10045 10045 10045 10045 10046 10047 10047 10047 10047 10047 10047 10047 10047 10047 10047 10047 10046 10046
10211 10207 10202 10197 10193 10189 10185 10180 10177 10172 10168 10165 10161 10158 10154 10150 10147 10143 10138 10135 10132 10128 10123 10120 10117 10113 10110 10106 10102 10098 10095 10093 10093 10093 10090 10086 10082 10078 10077 10073 10072 10070 10069 10067 10063 10060 10057 10055 10054 10054 10054 10053 10053 10053 10054 10055 10056 10056 10055 10053 10052 10050 10048 10045 10043 10042 10040 10039 10038 10038 10038 10039 10040 10040 10041 10042 10042 10042 10042 10042 10042 10042 10042 10041 10041 10040
10201 10197 10192 10187 10183 10179 10175 10172 10167 10163 10160 10156 10153 10149 10145 10142 10138 10135 10131 10127 10124 10120 10117 10113 10109 10106 10102 10099 10095 10091 10088 10086 10086 10085 10083 10079 10075 10072 10070 10067 10065 10063 10063 10062 10058 10055 10052 10049 10047 10047 10047 10047 10047 10047 10047 10048 10048 10048 10048 10047 10045 10043 10041 10038 10037 10035 10033 10033 10032 10032 10033 10033 10034 10035 10035 10035 10036 10036 10036 10037 10037 10037 10037 10036 10036 10035
10192 10188 10183 10178 10175 10170 10167 10163 10159 10155 10152 10148 10144 10141 10137 10133 10130 10127 10123 10120 10117 10113 10110 10105 10102 10098 10095 10093 10089 10085 10082 10080 10078 10078 10076 10072 10068 10065 10063 10060 10058 10056 10056 10055 10053 10051 10047 10043 10041 10040 10040 10040 10040 10041 10041 10042 10042 10041 10040 10039 10037 10035 10034 10032 10030 10028 10027 10026 10026 10026 10027 10027 10028 10028 10029 10030 10030 10030 10031 10031 10032 10032 10032 10031 10031 10031
10184 10180 10175 10171 10167 10162 10158 10155 10151 10147 10143 10140 10136 10133 10129 10126 10123 10119 10116 10113 10110 10106 10103 10099 10095 10092 10089 10086 10083 10080 10077 10074 10073 10072 10069 10066 10062 10059 10057 10053 10051 10050 10048 10048 10047 10045 10043 10039 10037 10034 10033 10033 10033 10033 10034 10035 10035 10035 10033 10032 10030 10028 10027 10025 10023 10021 10020 10020 10020 10020 10020 10022 10022 10023 10023 10024 10025 10025 10026 10026 10027 10027 10027 10027 10027 10026
10177 10172 10168 10163 10159 10155 10151 10147 10143 10140 10136 10132 10128 10125 10122 10118 10115 10112 10109 10106 10103 10099 10096 10093 10089 10086 10083 10080 10077 10073 10071 10068 10067 10065 10063 10060 10057 10053 10050 10047 10045 10043 10042 10041 10040 10038 10037 10035 10032 10030 10028 10027 10027 10027 10027 10028 10028 10028 10027 10026 10024 10022 10020 10018 10016 10015 10013 10013 10013 10014 10015 10016 10017 10017 10018 10019 10020 10020 10021 10022 10022 10022 10022 10022 10022 10022
10169 10165 10160 10157 10152 10148 10144 10140 10137 10133 10129 10125 10122 10118 10115 10112 10108 10105 10102 10098 10095 10093 10090 10087 10083 10080 10077 10074 10072 10068 10065 10063 10061 10059 10057 10054 10051 10047 10044 10041 10039 10038 10036 10035 10033 10032 10030 10028 10027 10025 10023 10022 10020 10020 10020 10021 10022 10022 10021 10019 10017 10015 10013 10011 10010 10008 10008 10008 10008 10009 10010 10011 10012 10012 10013 10014 10015 10015 10017 10017 10018 10018 10018 10018 10018 10017
10162 10158 10153 10150 10145 10142 10137 10133 10130 10126 10122 10118 10115 10112 10108 10105 10102 10098 10095 10092 10089 10086 10083 10080 10078 10075 10072 10070 10067 10063 10060 10058 10055 10053 10050 10048 10045 10042 10038 10035 10033 10032 10030 10029 10028 10027 10025 10023 10022 10020 10018 10017 10015 10015 10015 10015 10015 10015 10014 10013 10011 10009 10007 10005 10003 10003 10002 10002 10003 10004 10005 10007 10007 10008 10009 10010 10011 10012 10012 10013 10013 10014 10014 10014 10013 10013
10155 10151 10147 10143 10139 10135 10131 10127 10123 10120 10116 10113 10109 10106 10103 10099 10096 10092 10089 10086 10083 10080 10077 10074 10072 10069 10067 10065 10062 10060 10056 10053 10050 10047 10043 10041 10038 10035 10032 10029 10028 10027 10025 10024 10022 10021 10019 10018 10016 10015 10013 10012 10011 10010 10009 10009 10009 10009 10008 10007 10005 10003 10001 10000 9998 9998 9998 9998 9999 10000 10002 10003 10003 10005 10005 10006 10007 10008 10008 10009 10010 10010 10010 10010 10009 10009
10148 10145 10140 10137 10133 10129 10125 10121 10117 10113 10110 10107 10103 10100 10097 10093 10090 10087 10083 10080 10077 10075 10072 10068 10065 10063 10060 10059 10057 10055 10052 10048 10044 10040 10037 10034 10032 10029 10027 10024 10022 10021 10020 10019 10017 10016 10015 10013 10011 10010 10008 10007 10006 10005 10004 10003 10003 10003 10002 10000 9999 9997 9996 9995 9994 9994 9994 9995 9996 9997 9998 9999 10000 10001 10002 10002 10003 10003 10004 10005 10005 10006 10006 10005 10005 10005
10142 10138 10135 10131 10127 10123 10119 10115 10112 10108 10105 10102 10098 10095 10092 10088 10085 10081 10078 10075 10072 10069 10066 10063 10060 10057 10055 10053 10051 10049 10046 10043 10039 10035 10032 10028 10025 10023 10021 10019 10017 10016 10015 10014 10013 10012 10010 10008 10007 10005 10003 10002 10000 10000 9999 9999 9998 9997 9996 9995 9994 9993 9992 9991 9990 9990 9991 9992 9993 9994 9995 9996 9997 9997 9998 9998 9999 10000 10000 10001 10002 10002 10002 10002 10002 10001
10137 10132 10128 10125 10121 10117 10113 10110 10107 10103 10100 10097 10093 10090 10087 10083 10079 10076 10073 10070 10067 10064 10061 10058 10055 10052 10049 10047 10045 10043 10040 10037 10034 10030 10026 10022 10020 10018 10017 10015 10013 10012 10010 10009 10008 10007 10005 10003 10002 10000 9998 9997 9996 9995 9995 9994 9993 9992 9991 9990 9990 9989 9988 9988 9987 9987 9988 9989 9990 9991 9992 9993 9993 9994 9995 9995 9996 9997 9997 9997 9998 9998 9998 9998 9998 9997
10130 10127 10123 10119 10116 10112 10108 10105 10102 10098 10095 10092 10088 10085 10082 10078 10075 10070 10067 10064 10061 10058 10055 10052 10049 10046 10043 10042 10040 10038 10035 10032 10029 10025 10021 10017 10015 10013 10012 10010 10009 10007 10006 10005 10003 10002 10000 9998 9997 9995 9993 9992 9992 9991 9990 9990 9989 9988 9987 9987 9987 9986 9985 9985 9984 9985 9985 9986 9987 9988 9989 9989 9990 9990 9991 9992 9992 9993 9993 9993 9993 9994 9994 9994 9994 9994
10125 10122 10118 10114 10110 10107 10103 10100 10097 10094 10091 10088 10084 10081 10078 10074 10070 10066 10062 10059 10056 10053 10050 10047 10043 10041 10038 10036 10034 10032 10030 10028 10024 10020 10016 10013 10011 10009 10008 10006 10005 10003 10002 10000 9998 9997 9996 9994 9992 9991 9989 9988 9988 9987 9987 9986 9985 9985 9984 9983 9983 9983 9982 9982 9982 9982 9983 9983 9984 9985 9986 9987 9987 9988 9988 9988 9989 9990 9990 9990 9990 9990 9990 9990 9990 9990
10120 10116 10112 10109 10105 10102 10098 10095 10092 10089 10086 10083 10080 10077 10073 10070 10066 10062 10058 10055 10051 10048 10045 10042 10039 10036 10033 10030 10028 10027 10025 10023 10020 10016 10012 10009 10007 10005 10003 10002 10001 9999 9998 9996 9994 9993 9991 9990 9988 9987 9986 9985 9985 9984 9983 9983 9982 9982 9981 9981 9980 9980 9979 9978 9978 9979 9980 9981 9982 9982 9983 9983 9984 9985 9985 9985 9986 9986 9986 9987 9987 9987 9987 9987 9987 9987
10115 10111 10107 10104 10100 10097 10094 10091 10088 10085 10082 10078 10075 10072 10069 10065 10062 10058 10055 10051 10047 10044 10041 10038 10035 10032 10028 10025 10023 10022 10020 10018 10015 10012 10008 10005 10003 10002 10000 9998 9997 9995 9994 9992 9990 9989 9987 9986 9985 9984 9983 9982 9982 9981 9980 9980 9979 9978 9978 9978 9978 9977 9977 9977 9977 9977 9978 9978 9979 9980 9980 9981 9981 9982 9982 9982 9983 9983 9983 9983 9983 9983 9983 9983 9984 9985
10109 10106 10102 10099 10096 10093 10090 10087 10083 10080 10077 10075 10072 10068 10065 10062 10058 10054 10050 10047 10043 10040 10037 10034 10031 10027 10024 10022 10019 10017 10015 10013 10010 10008 10005 10002 10000 9998 9997 9995 9993 9992 9990 9988 9987 9986 9985 9983 9982 9981 9980 9980 9979 9978 9978 9977 9977 9976 9976 9975 9975 9975 9975 9975 9975 9975 9975 9976 9976 9977 9978 9978 9978 9979 9979 9980 9980 9980 9980 9980 9980 9980 9980 9981 9981 9982
10105 10101 10098 10095 10092 10089 10086 10082 10079 10076 10073 10070 10068 10065 10061 10057 10054 10050 10047 10043 10040 10037 10033 10030 10027 10024 10021 10018 10016 10013 10012 10009 10007 10004 10002 9999 9997 9995 9993 9992 9990 9988 9987 9985 9984 9983 9982 9981 9980 9979 9978 9977 9977 9976 9975 9975 9975 9974 9973 9973 9973 9973 9973 9973 9973 9973 9973 9973 9974 9975 9975 9975 9976 9977 9977 9977 9977 9977 9977 9977 9977 9977 9978 9978 9978 9978
10100 10097 10093 10090 10088 10085 10082 10078 10075 10072 10069 10067 10063 10060 10057 10053 10050 10047 10043 10040 10036 10033 10030 10027 10024 10021 10018 10015 10012 10010 10008 10005 10003 10001 9999 9997 9994 9992 9990 9989 9987 9986 9985 9983 9982 9980 9980 9978 9978 9977 9977 9975 9975 9974 9973 9973 9973 9972 9972 9972 9972 9972 9971 9971 9971 9971 9972 9972 9972 9972 9973 9973 9973 9974 9974 9973 9973 9973 9973 9974 9974 9975 9975 9975 9975 9975
10096 10093 10090 10087 10083 10081 10078 10075 10072 10068 10065 10062 10059 10056 10053 10050 10046 10043 10039 10036 10033 10030 10027 10023 10020 10018 10015 10012 10010 10007 10005 10003 10000 9998 9996 9994 9992 9990 9988 9987 9985 9983 9982 9981 9980 9978 9978 9977 9976 9975 9975 9974 9973 9972 9972 9972 9972 9971 9971 9970 9970 9970 9970 9970 9970 9970 9970 9970 9970 9970 9970 9971 9971 9972 9971 9971 9971 9971 9972 9972 9972 9972 9972 9972 9972 9972
10093 10089 10086 10083 10080 10077 10074 10071 10068 10065 10062 10058 10055 10052 10049 10046 10043 10039 10036 10032 10029 10026 10023 10020 10017 10015 10012 10010 10007 10005 10002 10000 9998 9996 9993 9992 9990 9988 9986 9984 9983 9982 9980 9979 9978 9977 9976 9975 9974 9973 9973 9973 9972 9972 9971 9970 9970 9970 9970 9970 9969 9969 9969 9968 9968 9968 9968 9968 9968 9968 9968 9968 9969 9969 9969 9969 9969 9969 9969 9969 9969 9970 9970 9970 9970 9970
10089 10086 10083 10080 10077 10073 10070 10067 10064 10061 10057 10054 10051 10048 10045 10042 10038 10035 10032 10029 10026 10023 10020 10017 10015 10012 10009 10007 10005 10002 10000 9998 9996 9993 9992 9990 9988 9986 9984 9983 9981 9980 9978 9977 9977 9975 9975 9974 9973 9973 9972 9972 9972 9971 9970 9970 9970 9969 9969 9968 9968 9968 9968 9967 9967 9967 9967 9966 9966 9966 9967 9967 9967 9967 9967 9967 9967 9967 9967 9967 9967 9968 9968 9968 9968 9968
10086 10083 10080 10077 10073 10070 10067 10064 10060 10057 10054 10051 10048 10045 10042 10038 10035 10032 10029 10027 10023 10020 10018 10015 10012 10010 10007 10005 10002 10000 9998 9996 9993 9992 9990 9988 9986 9985 9983 9981 9980 9978 9977 9977 9975 9975 9974 9973 9972 9972 9972 9971 9971 9970 9970 9969 9969 9968 9968 9967 9967 9967 9966 9966 9965 9965 9965 9965 9965 9965 9965 9965 9965 9965 9965 9965 9965 9965 9965 9965 9966 9966 9966 9966 9966 9965